Regional Weather Roundup
Issued by NWS Cleveland, OH

Home | Current Version | Previous Version | Graphics & Text | Print | Product List | Glossary On
Versions: 1 2 3 4 5 6 7 8 9 10 11 12 13 14 15 16 17 18 19 20 21 22 23 24 25 26 27 28 29 30 31 32 33 34 35 36 37 38 39 40 41 42 43 44 45 46 47 48 49 50
000
ASUS41 KCLE 300100
RWRCLE
OHIO REGIONAL WEATHER ROUNDUP
NATIONAL WEATHER SERVICE WILMINGTON, OH
900 PM EDT MON JUN 29 2015

NOTE: "FAIR" INDICATES FEW OR NO CLOUDS BELOW 12,000 FEET WITH NO
SIGNIFICANT WEATHER AND/OR OBSTRUCTIONS TO VISIBILITY.

OHZ001>008-015>018-024>027-034-035-043-044-300200-
   NORTHWEST OHIO

CITY           SKY/WX    TMP DP  RH WIND       PRES   REMARKS
DEFIANCE       CLOUDY    63  59  87 SE3       29.83S
FINDLAY        CLOUDY    63  60  90 E6        29.82R
TOLEDO EXPRESS CLOUDY    63  58  83 SE3       29.83S
TOLEDO EXEC    CLOUDY    65  57  75 SE9       29.84S
LIMA           CLOUDY    63  61  93 CALM      29.82S
$$

OHZ009>014-019>023-028>033-038-089-300200-
   NORTHEAST OHIO

CITY           SKY/WX    TMP DP  RH WIND       PRES   REMARKS
CLE-HOPKINS    CLOUDY    65  56  72 SE9       29.86F
CLE-LAKEFRONT  CLOUDY    67  56  67 SE9       29.83F
CUY CO. ARPT   MOCLDY    66  59  77 SE7       29.86F
LORAIN-ELYRIA  CLOUDY    63  57  81 SE8       29.85F
ASHTABULA      CLOUDY    67  57  70 S5        29.88F
AKRON-CANTON   CLOUDY    64  59  83 SE9       29.85F
WOOSTER        NOT AVBL
MANSFIELD      CLOUDY    60  60 100 E8        29.84S
YOUNGSTOWN     LGT RAIN  64  60  87 SE6       29.88F
$$

OHZ042-051>053-060>062-070>072-077>081-300200-
  SOUTHWEST OHIO

CITY           SKY/WX    TMP DP  RH WIND       PRES   REMARKS
CINC-COVINGTON MOCLDY    71  65  81 W6        29.83R
CINC-LUNKEN    MOCLDY    73  65  75 W3        29.82R
HAMILTON       MOCLDY    71  68  90 CALM      29.82R
DAYTON         NOT AVBL
WRIGHT-PAT AFB NOT AVBL
DAYTON GENERAL PTCLDY    69  64  84 CALM      29.82R
WILMINGTON     MOCLDY    68  64  87 CALM      29.81S
$$

OHZ036-037-039>041-045>050-054>059-063>069-073>076-082>088-300200-
  CENTRAL AND SOUTHEAST OHIO

CITY           SKY/WX    TMP DP  RH WIND       PRES   REMARKS
COLUMBUS       CLOUDY    66  63  90 SE3       29.81S
OSU AIRPORT    CLOUDY    66  63  90 CALM      29.82R
BOLTON FIELD   NOT AVBL
RICKENBACK AFB NOT AVBL
NEWARK         CLOUDY    66  62  87 E5        29.82S
MARION         CLOUDY    62  60  93 SE7       29.83R
LANCASTER      CLOUDY    66  62  87 SE6       29.82F
ZANESVILLE     CLOUDY    65  61  87 SE3       29.83S
NEW PHILLY     CLOUDY    64  61  90 SE5       29.85F
$$


USA.gov is the U.S. government's official web portal to all federal, state and local government web resources and services.